Location: ???????
(55.8930°N, 38.0586°E)
Time: 14:04:18
(UTC+00:00)

Cosmos 1633 Rocket - Pass Details

Date: 14 April 2024
Orbit: 604 x 619 km, 82.5° (Epoch: 23 May)

Event Time Altitude Azimuth Distance (km) Brightness Sun altitude
Rises 00:29:21 0° 350° (N) 2,877 7.0 -14.6°
Reaches altitude 10° 00:31:39 10° 357° (N) 1,969 6.2 -14.4°
Maximum altitude 00:35:51 48° 72° (ENE) 804 4.1 -13.9°
Drops below altitude 10° 00:40:04 10° 147° (SSE) 1,959 5.5 -13.5°
Sets 00:42:20 0° 153° (SSE) 2,861 6.3 -13.2°
